STARLINK-34216, 64337

Orbit data source: Space-Track

STARLINK-34216, 64337 is a payload satellite owned by SpaceX/Seattle (US) in LEO that was launched on Tue, 10 Jun 2025 UTC via an FALCON 9 launch vehicle from the Air Force Eastern Test Range (AFETR). Payload-class satellites include a variety of spacecraft equipped with specific instruments for various scientific and technological missions. These include communications satellites like Starlink; space stations such as the ISS; scientific satellites like the Hubble; Earth observation satellites from companies like Planet Labs, Umbra, and HawkEye 360; GPS; miniature CubeSats for education and research; and military/defense satellites.

Loading next visibility...
Identifier
64337, 2025-124W
Orbit
LEO
Last TLE update
15 hours ago
Origin
Manufacturer
SpaceX/Seattle
Mission
Operational spacecraft
Bus & Motor
STARLINK V2MO, Unknown motor
Mass
575 kg wet, ~530 kg dry
Launch date (UTC)
2025-06-10 (1 month ago)
Launch vehicle
FALCON 9
Launch site
Air Force Eastern Test Range (AFETR)
Object type
Payload
Rocket body
Debris
Shape & HBR
Unknown
Radar Cross Section
Large (>1 m²)

Expand to show TLE details & history

TLE from 15 hours ago
0 STARLINK-34216
1 64337U 25124W   25199.75409098  .00028283  00000-0  68212-3 0  9990
2 64337  43.0013   5.3966 0000626 259.7869 100.2917 15.40686425  5977
Epoch: 2025-07-18T18:05Z
TLE epoch observation values (Epoch: 2025-07-18T18:05:53.46Z)
Latitude
-0.00002°
Longitude
157.12281°
Altitude
443.933 km
Speed
7.648 km/s
True Right ascension
00h 21m 35s
True Declination
0° 00' 00"
Sunlit
Object was in full shadow at epoch
Visualization orbit readout
Latitude
32.99189°
Longitude
-70.18394°
Altitude
445.368 km
Speed
7.65 km/s
Apparent Right ascension
09h 19m 38s
Apparent Declination
-2° 01' 22"
Sunlit
Object is in daylight
Visualization observer readout
Local Sidereal Time
21:28:10
Azimuth
3.466° NNE
Elevation
-52.057°
Doppler factor
1
Orbital elements
Apogee altitude
446.465 km
Perigee altitude
445.611 km
Semi-major axis
6,824.175 km
Eccentricity
0.00006
Inclination
43.0013°
RAAN
5.3966°
Arg. of periapsis
259.7869°
True anomaly
100.29876°
Mean anomaly
100.2917°
Eccentric anomaly
100.29523°
Mean motion
3.85006 °/min
Orbital period
93.5 mins
BSTAR
0.00068212
Loading maneuver chart data...
Loading SW <> Apogee altitude chart data...
Loading historical data...
Loading historical data...
Loading historical data...
Loading historical data...
Loading historical data...
Loading historical data...
Loading historical data...
|